User: anonymous   Login
Location: Mainz-Finthen
(49.9906°N, 8.1713°E)
Time: 10:07:24
(UTC+00:00)
Language:

STRAND 1 - Orbit

View from above orbital plane
View from above orbital plane
View from above satellite
View from above satellite

Ground track
Ground track

The orbit data is extracted from the following two-line orbital elements,

1 39090U 13009E   21334.82253171  .00000261  00000-0  10614-3 0  9990
2 39090  98.4129 173.0043 0009758 137.9347 222.2589 14.35208860458900
Epoch (UTC): 30 November 2021 19:44:26
Eccentricity: 0.0009758
inclination: 98.4129°
perigee height: 767 km
apogee height: 781 km
right ascension of ascending node: 173.0043°
argument of perigee: 137.9347°
revolutions per day: 14.35208860
mean anomaly at epoch: 222.2589°
orbit number at epoch: 45890

The dashed part of the orbit path shows where the satellite is in the earth's shadow,  

DLR